Location: Unspecified
(35.7250°N, 0.0000°E)
Time: 19:08:25
(UTC+00:00)

Tiros 1 despin weight - Visible Passes

Search period start: 07 August 2020 00:00
Search period end: 17 August 2020 00:00
Orbit: 594 x 642 km, 48.2° (Epoch: 07 August)

Date Brightness Start Highest point End Pass type
(mag) Time Alt. Az. Time Alt. Az. Time Alt. Az.
12 Aug ? 03:50:52 10° SSE 03:52:51 13° SE 03:54:49 10° ESE visible
13 Aug ? 04:05:14 10° S 04:09:01 27° SE 04:12:51 10° ENE visible
14 Aug ? 04:21:20 13° SW 04:25:20 55° SE 04:29:46 10° ENE visible
15 Aug ? 03:00:17 18° SE 03:00:37 18° SE 03:03:40 10° E visible
15 Aug ? 04:37:21 11° WSW 04:41:45 75° NW 04:46:18 10° NE visible
16 Aug ? 03:16:15 35° SSE 03:16:50 36° SE 03:21:01 10° ENE visible
